SKY14 RJTT-RJFF

Flight info

Callsign SKY14
Flight time 1h 29m
Altitude 35998
Route TIARA GUSRO Y20 KIRIN
Aircraft B738/M-SDE2E3FGHIRWXY/LB1

Departure

Time 2026-05-07 11:51
Airport Tokyo Haneda International Airport (RJTT)

Arrival

Time 2026-05-07 13:21
Airport Fukuoka Airport (RJFF)
Time Latitude Longitude Altitude Speed Heading
2026-05-07 11:24 35.55204 139.78020 24 ft 0 kts 150°
2026-05-07 11:35 35.55207 139.78018 28 ft 2 kts 150°
2026-05-07 11:35 35.55223 139.78007 29 ft 3 kts 150°
2026-05-07 11:35 35.55240 139.77994 28 ft 3 kts 147°
2026-05-07 11:35 35.55254 139.77979 26 ft 3 kts 115°
2026-05-07 11:36 35.55259 139.77957 24 ft 3 kts 92°
2026-05-07 11:36 35.55259 139.77933 27 ft 3 kts 108°
2026-05-07 11:36 35.55269 139.77915 24 ft 3 kts 144°
2026-05-07 11:36 35.55284 139.77903 27 ft 3 kts 150°
2026-05-07 11:37 35.55297 139.77894 24 ft 1 kts 150°
2026-05-07 11:41 35.55289 139.77900 24 ft 4 kts 149°
2026-05-07 11:41 35.55257 139.77911 25 ft 5 kts 182°
2026-05-07 11:41 35.55227 139.77882 23 ft 7 kts 246°
2026-05-07 11:42 35.55243 139.77824 22 ft 8 kts 326°
2026-05-07 11:42 35.55293 139.77790 21 ft 9 kts 331°
2026-05-07 11:42 35.55358 139.77745 22 ft 13 kts 329°
2026-05-07 11:42 35.55439 139.77687 21 ft 13 kts 330°
2026-05-07 11:43 35.55508 139.77640 21 ft 13 kts 330°
2026-05-07 11:43 35.55559 139.77604 23 ft 13 kts 329°
2026-05-07 11:43 35.55634 139.77548 22 ft 13 kts 330°
2026-05-07 11:43 35.55718 139.77490 23 ft 15 kts 330°
2026-05-07 11:44 35.55812 139.77422 21 ft 13 kts 330°
2026-05-07 11:44 35.55888 139.77368 22 ft 12 kts 330°
2026-05-07 11:44 35.55962 139.77366 25 ft 10 kts 39°
2026-05-07 11:44 35.56006 139.77454 23 ft 14 kts 60°
2026-05-07 11:45 35.56057 139.77564 22 ft 17 kts 60°
2026-05-07 11:45 35.56122 139.77702 24 ft 19 kts 60°
2026-05-07 11:45 35.56186 139.77838 28 ft 18 kts 59°
2026-05-07 11:45 35.56249 139.77969 27 ft 17 kts 60°
2026-05-07 11:46 35.56303 139.78085 25 ft 15 kts 59°
2026-05-07 11:46 35.56352 139.78189 24 ft 12 kts 60°
2026-05-07 11:46 35.56395 139.78281 25 ft 11 kts 59°
2026-05-07 11:46 35.56422 139.78334 26 ft 7 kts 58°
2026-05-07 11:47 35.56447 139.78386 24 ft 7 kts 60°
2026-05-07 11:47 35.56474 139.78445 30 ft 9 kts 60°
2026-05-07 11:47 35.56502 139.78505 28 ft 8 kts 60°
2026-05-07 11:47 35.56523 139.78549 27 ft 0 kts 59°
2026-05-07 11:48 35.56526 139.78555 27 ft 2 kts 59°
2026-05-07 11:48 35.56541 139.78587 27 ft 6 kts 60°
2026-05-07 11:49 35.56555 139.78648 29 ft 9 kts 94°
2026-05-07 11:49 35.56526 139.78704 29 ft 7 kts 148°
2026-05-07 11:49 35.56482 139.78732 29 ft 2 kts 150°
2026-05-07 11:50 35.56476 139.78736 29 ft 6 kts 151°
2026-05-07 11:50 35.56306 139.78856 26 ft 62 kts 150°
2026-05-07 11:50 35.55726 139.79269 26 ft 128 kts 149°
2026-05-07 11:51 35.54788 139.79905 148 ft 171 kts 153°
2026-05-07 11:51 35.53772 139.80661 934 ft 169 kts 155°
2026-05-07 11:51 35.52807 139.81496 1715 ft 178 kts 141°
2026-05-07 11:51 35.51926 139.82688 2113 ft 204 kts 139°
2026-05-07 11:52 35.50893 139.84044 2348 ft 229 kts 139°
2026-05-07 11:52 35.49775 139.85554 2665 ft 248 kts 130°
2026-05-07 11:52 35.49240 139.87625 3210 ft 266 kts 92°
2026-05-07 11:52 35.49693 139.89837 3829 ft 273 kts 61°
2026-05-07 11:53 35.50948 139.91560 4489 ft 273 kts 31°
2026-05-07 11:53 35.52705 139.92480 4945 ft 283 kts 10°
2026-05-07 11:53 35.54663 139.92941 5577 ft 289 kts
2026-05-07 11:53 35.56660 139.93310 6387 ft 291 kts
2026-05-07 11:54 35.58668 139.93683 7162 ft 292 kts
2026-05-07 11:54 35.60690 139.94078 7906 ft 296 kts
2026-05-07 11:54 35.62732 139.94499 8633 ft 299 kts
2026-05-07 11:54 35.64772 139.94934 9380 ft 303 kts
2026-05-07 11:55 35.66846 139.94901 10048 ft 297 kts 338°
2026-05-07 11:55 35.68631 139.93657 10387 ft 303 kts 311°
2026-05-07 11:55 35.69842 139.91484 10566 ft 316 kts 289°
2026-05-07 11:55 35.70401 139.88801 10769 ft 331 kts 273°
2026-05-07 11:56 35.70338 139.85942 11281 ft 336 kts 262°
2026-05-07 11:56 35.70011 139.83104 11955 ft 337 kts 259°
2026-05-07 11:56 35.69619 139.80243 12640 ft 339 kts 259°
2026-05-07 11:56 35.69229 139.77364 13287 ft 342 kts 259°
2026-05-07 11:57 35.68859 139.74494 13871 ft 345 kts 260°
2026-05-07 11:57 35.68497 139.71553 14381 ft 349 kts 261°
2026-05-07 11:57 35.68146 139.68587 14892 ft 353 kts 261°
2026-05-07 11:57 35.67873 139.65570 15431 ft 356 kts 265°
2026-05-07 11:58 35.67751 139.62517 15967 ft 360 kts 267°
2026-05-07 11:58 35.67678 139.59422 16464 ft 363 kts 267°
2026-05-07 11:58 35.67609 139.56299 17013 ft 366 kts 267°
2026-05-07 11:58 35.67532 139.53159 17512 ft 370 kts 267°
2026-05-07 11:59 35.67445 139.50023 17993 ft 373 kts 267°
2026-05-07 11:59 35.67347 139.46816 18451 ft 376 kts 266°
2026-05-07 11:59 35.67243 139.43599 18889 ft 378 kts 266°
2026-05-07 11:59 35.67134 139.40357 19334 ft 380 kts 266°
2026-05-07 12:00 35.67023 139.37094 19771 ft 383 kts 266°
2026-05-07 12:00 35.66910 139.33816 20199 ft 385 kts 266°
2026-05-07 12:00 35.66796 139.30514 20617 ft 388 kts 266°
2026-05-07 12:00 35.66679 139.27187 21041 ft 390 kts 266°
2026-05-07 12:01 35.66562 139.23839 21466 ft 393 kts 266°
2026-05-07 12:01 35.66443 139.20465 21853 ft 396 kts 266°
2026-05-07 12:01 35.66321 139.17064 22249 ft 399 kts 266°
2026-05-07 12:01 35.66198 139.13648 22708 ft 400 kts 266°
2026-05-07 12:02 35.66109 139.11384 22991 ft 401 kts 265°
2026-05-07 12:02 35.65962 139.07940 23360 ft 404 kts 265°
2026-05-07 12:02 35.65756 139.03349 23813 ft 407 kts 265°
2026-05-07 12:02 35.65598 138.99860 24168 ft 409 kts 265°
2026-05-07 12:03 35.65440 138.96357 24515 ft 410 kts 265°
2026-05-07 12:03 35.65336 138.94029 24726 ft 411 kts 265°
2026-05-07 12:03 35.65178 138.90511 25025 ft 413 kts 265°
2026-05-07 12:03 35.65018 138.86978 25316 ft 415 kts 265°
2026-05-07 12:04 35.64857 138.83424 25632 ft 417 kts 264°
2026-05-07 12:04 35.64695 138.79863 25966 ft 418 kts 264°
2026-05-07 12:04 35.64531 138.76283 26273 ft 420 kts 264°
2026-05-07 12:04 35.64364 138.72683 26554 ft 422 kts 264°
2026-05-07 12:05 35.64197 138.69079 26854 ft 423 kts 264°
2026-05-07 12:05 35.64025 138.65451 27143 ft 425 kts 264°
2026-05-07 12:05 35.63841 138.61818 27425 ft 426 kts 264°
2026-05-07 12:05 35.63651 138.58177 27702 ft 428 kts 264°
2026-05-07 12:06 35.63457 138.54516 27954 ft 430 kts 264°
2026-05-07 12:06 35.63263 138.50846 28201 ft 431 kts 264°
2026-05-07 12:06 35.63067 138.47153 28460 ft 433 kts 264°
2026-05-07 12:06 35.62871 138.43457 28717 ft 434 kts 264°
2026-05-07 12:07 35.62673 138.39744 28945 ft 435 kts 264°
2026-05-07 12:07 35.62475 138.36029 29222 ft 436 kts 264°
2026-05-07 12:07 35.62277 138.32356 29460 ft 437 kts 264°
2026-05-07 12:07 35.62076 138.28620 29688 ft 438 kts 264°
2026-05-07 12:08 35.61874 138.24887 30113 ft 436 kts 264°
2026-05-07 12:08 35.61672 138.21190 30494 ft 433 kts 264°
2026-05-07 12:08 35.61468 138.17503 30816 ft 432 kts 264°
2026-05-07 12:08 35.61263 138.13826 31109 ft 431 kts 264°
2026-05-07 12:09 35.61057 138.10153 31425 ft 430 kts 264°
2026-05-07 12:09 35.60852 138.06498 31778 ft 428 kts 263°
2026-05-07 12:09 35.60646 138.02860 32106 ft 426 kts 263°
2026-05-07 12:09 35.60439 137.99227 32371 ft 426 kts 263°
2026-05-07 12:10 35.60232 137.95598 32610 ft 426 kts 263°
2026-05-07 12:10 35.60023 137.91960 32872 ft 425 kts 263°
2026-05-07 12:10 35.59814 137.88342 33169 ft 424 kts 263°
2026-05-07 12:10 35.59606 137.84742 33451 ft 422 kts 263°
2026-05-07 12:11 35.59396 137.81130 33695 ft 422 kts 263°
2026-05-07 12:11 35.59175 137.77537 33942 ft 421 kts 262°
2026-05-07 12:11 35.58914 137.73955 34194 ft 420 kts 262°
2026-05-07 12:11 35.58641 137.70432 34409 ft 419 kts 262°
2026-05-07 12:12 35.58363 137.66868 34617 ft 420 kts 262°
2026-05-07 12:12 35.58089 137.63294 34816 ft 419 kts 262°
2026-05-07 12:12 35.57818 137.59730 35045 ft 418 kts 262°
2026-05-07 12:12 35.57548 137.56167 35200 ft 419 kts 262°
2026-05-07 12:13 35.57223 137.52613 35365 ft 418 kts 258°
2026-05-07 12:13 35.56557 137.49139 35537 ft 416 kts 253°
2026-05-07 12:13 35.55794 137.45719 35753 ft 415 kts 252°
2026-05-07 12:13 35.55027 137.42305 35937 ft 414 kts 253°
2026-05-07 12:14 35.54267 137.38887 35978 ft 417 kts 253°
2026-05-07 12:14 35.52761 137.32005 35970 ft 416 kts 253°
2026-05-07 12:15 35.51279 137.25206 35962 ft 414 kts 253°
2026-05-07 12:15 35.49778 137.18410 35961 ft 412 kts 253°
2026-05-07 12:16 35.48272 137.11644 35953 ft 411 kts 253°
2026-05-07 12:16 35.46764 137.04879 35948 ft 411 kts 253°
2026-05-07 12:17 35.45255 136.98121 35948 ft 411 kts 253°
2026-05-07 12:17 35.43736 136.91336 35941 ft 412 kts 253°
2026-05-07 12:18 35.42206 136.84523 35937 ft 415 kts 253°
2026-05-07 12:18 35.40668 136.77693 35934 ft 416 kts 253°
2026-05-07 12:19 35.39131 136.70887 35936 ft 418 kts 253°
2026-05-07 12:19 35.37576 136.64018 35936 ft 419 kts 253°
2026-05-07 12:20 35.36011 136.57126 35936 ft 419 kts 253°
2026-05-07 12:20 35.34448 136.50255 35930 ft 418 kts 253°
2026-05-07 12:21 35.32887 136.43419 35938 ft 415 kts 253°
2026-05-07 12:21 35.31328 136.36605 35932 ft 414 kts 253°
2026-05-07 12:22 35.29778 136.29832 35937 ft 412 kts 253°
2026-05-07 12:22 35.28236 136.23110 35933 ft 411 kts 253°
2026-05-07 12:23 35.26685 136.16368 35936 ft 410 kts 253°
2026-05-07 12:23 35.25137 136.09658 35934 ft 409 kts 252°
2026-05-07 12:24 35.23588 136.02959 35938 ft 409 kts 252°
2026-05-07 12:24 35.22032 135.96251 35938 ft 409 kts 252°
2026-05-07 12:25 35.20480 135.89577 35936 ft 410 kts 252°
2026-05-07 12:25 35.18941 135.82976 35936 ft 410 kts 252°
2026-05-07 12:26 35.17492 135.76098 35933 ft 411 kts 256°
2026-05-07 12:26 35.16360 135.69230 35943 ft 413 kts 257°
2026-05-07 12:27 35.15246 135.62382 35940 ft 413 kts 256°
2026-05-07 12:27 35.14088 135.55482 35936 ft 414 kts 256°
2026-05-07 12:28 35.12913 135.48580 35941 ft 415 kts 256°
2026-05-07 12:28 35.11732 135.41676 35937 ft 415 kts 256°
2026-05-07 12:29 35.10546 135.34760 35934 ft 415 kts 256°
2026-05-07 12:29 35.09358 135.27861 35937 ft 415 kts 256°
2026-05-07 12:30 35.08181 135.20982 35940 ft 414 kts 256°
2026-05-07 12:30 35.07010 135.14135 35934 ft 413 kts 256°
2026-05-07 12:31 35.05833 135.07275 35946 ft 413 kts 256°
2026-05-07 12:31 35.04653 135.00422 35951 ft 412 kts 256°
2026-05-07 12:32 35.03470 134.93585 35943 ft 411 kts 256°
2026-05-07 12:32 35.02272 134.86761 35945 ft 411 kts 256°
2026-05-07 12:33 35.00465 134.76579 35943 ft 411 kts 256°
2026-05-07 12:33 34.99254 134.69767 35940 ft 410 kts 256°
2026-05-07 12:34 34.97972 134.62992 35950 ft 410 kts 255°
2026-05-07 12:34 34.96622 134.56235 35939 ft 410 kts 255°
2026-05-07 12:35 34.95272 134.49471 35943 ft 410 kts 255°
2026-05-07 12:35 34.93930 134.42727 35958 ft 410 kts 256°
2026-05-07 12:36 34.92587 134.35973 35947 ft 410 kts 255°
2026-05-07 12:36 34.91242 134.29225 35936 ft 410 kts 256°
2026-05-07 12:37 34.89897 134.22508 35931 ft 409 kts 256°
2026-05-07 12:37 34.88553 134.15812 35946 ft 409 kts 256°
2026-05-07 12:38 34.87199 134.09086 35937 ft 409 kts 255°
2026-05-07 12:38 34.85840 134.02354 35936 ft 409 kts 256°
2026-05-07 12:39 34.84479 133.95633 35936 ft 409 kts 256°
2026-05-07 12:39 34.83112 133.88898 35940 ft 408 kts 255°
2026-05-07 12:40 34.81736 133.82193 35945 ft 408 kts 255°
2026-05-07 12:40 34.80319 133.75487 35948 ft 408 kts 255°
2026-05-07 12:41 34.78900 133.68803 35936 ft 408 kts 255°
2026-05-07 12:41 34.77480 133.62117 35932 ft 408 kts 255°
2026-05-07 12:42 34.76057 133.55424 35935 ft 409 kts 255°
2026-05-07 12:42 34.74655 133.48847 35942 ft 409 kts 255°
2026-05-07 12:43 34.73233 133.42195 35943 ft 409 kts 255°
2026-05-07 12:43 34.71798 133.35502 35939 ft 410 kts 255°
2026-05-07 12:44 34.70355 133.28791 35940 ft 410 kts 255°
2026-05-07 12:44 34.68908 133.22079 35936 ft 411 kts 255°
2026-05-07 12:45 34.67701 133.16496 35929 ft 411 kts 255°
2026-05-07 12:45 34.66244 133.09774 35930 ft 411 kts 255°
2026-05-07 12:46 34.64781 133.03045 35929 ft 412 kts 255°
2026-05-07 12:46 34.63316 132.96322 35929 ft 412 kts 255°
2026-05-07 12:47 34.61844 132.89593 35928 ft 412 kts 255°
2026-05-07 12:47 34.60382 132.82922 35926 ft 411 kts 255°
2026-05-07 12:48 34.58910 132.76228 35920 ft 410 kts 255°
2026-05-07 12:48 34.57459 132.69647 35912 ft 391 kts 255°
2026-05-07 12:49 34.56764 132.66504 35918 ft 377 kts 255°
2026-05-07 12:49 34.56098 132.63496 35904 ft 363 kts 255°
2026-05-07 12:49 34.54804 132.57653 35945 ft 360 kts 256°
2026-05-07 12:50 34.53482 132.51700 35943 ft 370 kts 255°
2026-05-07 12:50 34.52129 132.45619 35937 ft 378 kts 256°
2026-05-07 12:51 34.50762 132.39468 35914 ft 380 kts 256°
2026-05-07 12:51 34.49403 132.33298 35940 ft 377 kts 256°
2026-05-07 12:52 34.48049 132.27157 35928 ft 376 kts 256°
2026-05-07 12:52 34.46705 132.21077 35926 ft 372 kts 256°
2026-05-07 12:53 34.45355 132.15039 35944 ft 370 kts 255°
2026-05-07 12:53 34.43990 132.09046 35949 ft 368 kts 255°
2026-05-07 12:54 34.42615 132.02984 35303 ft 379 kts 255°
2026-05-07 12:54 34.41917 131.99915 34824 ft 376 kts 255°
2026-05-07 12:54 34.41223 131.96867 34382 ft 375 kts 255°
2026-05-07 12:55 34.40536 131.93854 33915 ft 375 kts 255°
2026-05-07 12:55 34.39840 131.90805 33398 ft 375 kts 255°
2026-05-07 12:55 34.39145 131.87759 32888 ft 375 kts 255°
2026-05-07 12:55 34.38449 131.84721 32372 ft 374 kts 255°
2026-05-07 12:56 34.37755 131.81689 31900 ft 373 kts 255°
2026-05-07 12:56 34.37058 131.78650 31402 ft 373 kts 255°
2026-05-07 12:56 34.36363 131.75621 30925 ft 373 kts 255°
2026-05-07 12:56 34.35667 131.72594 30462 ft 373 kts 254°
2026-05-07 12:57 34.34971 131.69572 29988 ft 373 kts 254°
2026-05-07 12:57 34.34274 131.66549 29411 ft 373 kts 254°
2026-05-07 12:57 34.33582 131.63551 28732 ft 376 kts 254°
2026-05-07 12:57 34.32879 131.60507 28090 ft 377 kts 254°
2026-05-07 12:58 34.32171 131.57445 27474 ft 378 kts 254°
2026-05-07 12:58 34.31460 131.54377 26848 ft 379 kts 254°
2026-05-07 12:58 34.30749 131.51312 26248 ft 379 kts 254°
2026-05-07 12:58 34.30037 131.48244 25658 ft 379 kts 254°
2026-05-07 12:59 34.29324 131.45177 25071 ft 378 kts 254°
2026-05-07 12:59 34.28611 131.42114 24511 ft 378 kts 254°
2026-05-07 12:59 34.27899 131.39060 23955 ft 377 kts 254°
2026-05-07 12:59 34.27187 131.36004 23380 ft 377 kts 254°
2026-05-07 13:00 34.26476 131.32960 22722 ft 376 kts 253°
2026-05-07 13:00 34.25764 131.29917 22086 ft 374 kts 253°
2026-05-07 13:00 34.25055 131.26891 21462 ft 373 kts 253°
2026-05-07 13:00 34.24347 131.23875 20844 ft 371 kts 253°
2026-05-07 13:01 34.23654 131.20919 20260 ft 370 kts 253°
2026-05-07 13:01 34.22951 131.17928 19663 ft 368 kts 253°
2026-05-07 13:01 34.22252 131.14959 19093 ft 367 kts 253°
2026-05-07 13:01 34.21554 131.11996 18526 ft 366 kts 253°
2026-05-07 13:02 34.20811 131.09083 18161 ft 359 kts 252°
2026-05-07 13:02 34.20155 131.06246 18166 ft 341 kts 253°
2026-05-07 13:02 34.19540 131.03545 18153 ft 326 kts 253°
2026-05-07 13:02 34.18888 131.00966 18182 ft 319 kts 246°
2026-05-07 13:03 34.17914 130.98514 17759 ft 329 kts 243°
2026-05-07 13:03 34.16845 130.96055 17269 ft 331 kts 242°
2026-05-07 13:03 34.15757 130.93596 16759 ft 332 kts 242°
2026-05-07 13:03 34.14663 130.91146 16259 ft 331 kts 242°
2026-05-07 13:04 34.13566 130.88712 15771 ft 329 kts 242°
2026-05-07 13:04 34.12473 130.86281 15290 ft 328 kts 242°
2026-05-07 13:04 34.11382 130.83861 14819 ft 328 kts 242°
2026-05-07 13:04 34.10289 130.81451 14357 ft 327 kts 242°
2026-05-07 13:05 34.09197 130.79051 13896 ft 326 kts 242°
2026-05-07 13:05 34.08102 130.76656 13399 ft 326 kts 242°
2026-05-07 13:05 34.07009 130.74271 12888 ft 325 kts 242°
2026-05-07 13:05 34.05929 130.71920 12391 ft 324 kts 242°
2026-05-07 13:06 34.04839 130.69546 11899 ft 324 kts 242°
2026-05-07 13:06 34.03749 130.67174 11410 ft 323 kts 242°
2026-05-07 13:06 34.02663 130.64812 10938 ft 322 kts 242°
2026-05-07 13:06 34.01578 130.62452 10452 ft 322 kts 242°
2026-05-07 13:07 34.00497 130.60104 10102 ft 314 kts 242°
2026-05-07 13:07 33.99468 130.57871 9974 ft 295 kts 242°
2026-05-07 13:07 33.98502 130.55780 9853 ft 277 kts 242°
2026-05-07 13:07 33.97585 130.53803 9579 ft 267 kts 242°
2026-05-07 13:08 33.96676 130.51844 9103 ft 268 kts 242°
2026-05-07 13:08 33.95769 130.49881 8774 ft 267 kts 242°
2026-05-07 13:08 33.94872 130.47932 8456 ft 263 kts 242°
2026-05-07 13:08 33.93993 130.46015 8073 ft 261 kts 242°
2026-05-07 13:09 33.93137 130.44141 8010 ft 249 kts 242°
2026-05-07 13:09 33.92317 130.42344 7990 ft 241 kts 242°
2026-05-07 13:09 33.91514 130.40582 7986 ft 239 kts 242°
2026-05-07 13:09 33.90712 130.38823 7995 ft 241 kts 242°
2026-05-07 13:10 33.89900 130.37038 7995 ft 244 kts 242°
2026-05-07 13:10 33.89086 130.35251 7990 ft 243 kts 242°
2026-05-07 13:10 33.88287 130.33498 7981 ft 241 kts 242°
2026-05-07 13:10 33.87476 130.31717 7850 ft 239 kts 242°
2026-05-07 13:11 33.86683 130.29970 7475 ft 238 kts 242°
2026-05-07 13:11 33.85897 130.28230 7036 ft 241 kts 242°
2026-05-07 13:11 33.85085 130.26421 6684 ft 243 kts 242°
2026-05-07 13:11 33.84297 130.24659 6460 ft 241 kts 242°
2026-05-07 13:12 33.83483 130.22889 6186 ft 241 kts 234°
2026-05-07 13:12 33.82166 130.21692 5884 ft 243 kts 198°
2026-05-07 13:12 33.80493 130.21710 5622 ft 246 kts 166°
2026-05-07 13:12 33.78885 130.22413 5347 ft 245 kts 162°
2026-05-07 13:13 33.77316 130.23142 5006 ft 245 kts 162°
2026-05-07 13:13 33.75738 130.23882 4702 ft 242 kts 162°
2026-05-07 13:13 33.74154 130.24627 4368 ft 240 kts 162°
2026-05-07 13:13 33.72617 130.25350 4013 ft 240 kts 162°
2026-05-07 13:14 33.71065 130.26082 3691 ft 239 kts 162°
2026-05-07 13:14 33.69522 130.26813 3376 ft 238 kts 162°
2026-05-07 13:14 33.67984 130.27540 3081 ft 238 kts 162°
2026-05-07 13:14 33.66487 130.28385 2822 ft 240 kts 149°
2026-05-07 13:15 33.65285 130.29789 2569 ft 243 kts 131°
2026-05-07 13:15 33.64245 130.31385 2327 ft 242 kts 131°
2026-05-07 13:15 33.63203 130.32975 2070 ft 242 kts 131°
2026-05-07 13:15 33.62182 130.34528 1999 ft 231 kts 131°
2026-05-07 13:16 33.61238 130.35965 1975 ft 206 kts 131°
2026-05-07 13:16 33.60389 130.37264 1976 ft 192 kts 131°
2026-05-07 13:16 33.59604 130.38466 1966 ft 180 kts 131°
2026-05-07 13:16 33.58697 130.39495 1990 ft 179 kts 150°
2026-05-07 13:17 33.57653 130.40290 1990 ft 178 kts 150°
2026-05-07 13:17 33.56661 130.41058 1989 ft 162 kts 150°
2026-05-07 13:17 33.55708 130.41799 1997 ft 161 kts 150°
2026-05-07 13:17 33.54776 130.42525 1985 ft 159 kts 150°
2026-05-07 13:18 33.53832 130.43229 1988 ft 160 kts 153°
2026-05-07 13:18 33.52877 130.43892 1984 ft 159 kts 153°
2026-05-07 13:18 33.52100 130.44844 1793 ft 168 kts 109°
2026-05-07 13:18 33.52183 130.46206 1711 ft 168 kts 65°
2026-05-07 13:19 33.52960 130.47228 1407 ft 171 kts 28°
2026-05-07 13:19 33.54069 130.47520 1192 ft 163 kts
2026-05-07 13:19 33.55178 130.47329 819 ft 163 kts 338°
2026-05-07 13:19 33.56169 130.46716 473 ft 158 kts 331°
2026-05-07 13:20 33.57109 130.46079 198 ft 150 kts 331°
2026-05-07 13:20 33.57978 130.45480 37 ft 136 kts 330°
2026-05-07 13:20 33.58656 130.45023 32 ft 80 kts 330°
2026-05-07 13:20 33.59054 130.44791 24 ft 54 kts 348°
2026-05-07 13:21 33.59235 130.44769 21 ft 18 kts 359°
2026-05-07 13:21 33.59343 130.44766 25 ft 9 kts 353°
2026-05-07 13:21 33.59402 130.44739 26 ft 9 kts 332°
2026-05-07 13:21 33.59460 130.44701 27 ft 10 kts 332°
2026-05-07 13:22 33.59525 130.44659 25 ft 11 kts 331°
2026-05-07 13:22 33.59598 130.44610 27 ft 13 kts 329°
2026-05-07 13:22 33.59676 130.44554 24 ft 13 kts 329°
2026-05-07 13:22 33.59757 130.44499 25 ft 14 kts 330°
2026-05-07 13:23 33.59845 130.44441 27 ft 14 kts 338°
2026-05-07 13:23 33.59899 130.44459 25 ft 7 kts 46°
2026-05-07 13:23 33.59942 130.44475 25 ft 6 kts
2026-05-07 13:23 33.59955 130.44487 26 ft 3 kts 46°
2026-05-07 13:24 33.59970 130.44521 24 ft 3 kts 62°
2026-05-07 13:24 33.59979 130.44540 28 ft 2 kts 60°